Total_Precipitation_Accumulation
0.78 0.66 0.76 0.76 0.64 0.71 1.03 0.96 0.88 0.65 0.61 0.69 0.69 0.71 0.69 0.64 0.56 0.49 0.48 0.46 0.43 0.44 0.45 0.47 0.50 0.56 0.69 0.81 0.88 1.02 1.16 1.19 1.17 1.14 1.10 1.08 1.09 1.06 1.07 1.10 1.16 1.23 1.22 1.15
0.80 0.50 0.52 0.57 0.48 0.55 0.66 0.62 0.61 0.51 0.59 0.56 0.55 0.59 0.61 0.57 0.49 0.43 0.44 0.43 0.38 0.36 0.36 0.39 0.41 0.45 0.55 0.70 0.80 0.90 1.03 1.10 1.12 1.10 1.07 1.05 1.03 1.02 0.98 1.01 1.08 1.17 1.22 1.22
0.96 0.52 0.59 0.68 0.56 0.55 0.62 0.59 0.56 0.65 0.62 0.44 0.45 0.54 0.65 0.60 0.49 0.45 0.44 0.43 0.40 0.39 0.37 0.36 0.37 0.44 0.54 0.65 0.71 0.77 0.84 0.93 0.98 0.99 1.02 1.02 1.01 1.04 1.09 1.11 1.13 1.22 1.28 1.32
1.09 0.82 0.98 0.72 0.48 0.46 0.54 0.59 0.54 0.55 0.47 0.42 0.47 0.51 0.55 0.58 0.53 0.47 0.40 0.38 0.39 0.40 0.38 0.36 0.37 0.41 0.52 0.65 0.74 0.81 0.87 0.90 0.90 0.94 1.00 1.04 1.11 1.18 1.26 1.31 1.33 1.38 1.44 1.46
1.15 0.88 0.59 0.38 0.30 0.42 0.53 0.61 0.50 0.45 0.38 0.33 0.35 0.42 0.47 0.44 0.46 0.47 0.42 0.40 0.42 0.44 0.44 0.42 0.43 0.44 0.50 0.64 0.74 0.82 0.90 0.96 0.97 1.04 1.13 1.18 1.28 1.35 1.37 1.44 1.43 1.39 1.38 1.37
1.20 0.97 0.54 0.37 0.19 0.23 0.41 0.62 0.38 0.33 0.34 0.32 0.31 0.44 0.47 0.44 0.46 0.48 0.45 0.43 0.45 0.45 0.44 0.47 0.51 0.52 0.59 0.72 0.83 0.92 1.00 1.10 1.11 1.14 1.21 1.24 1.27 1.25 1.22 1.22 1.19 1.14 1.10 1.06
0.97 0.91 0.50 0.34 0.16 0.16 0.49 0.64 0.38 0.37 0.38 0.36 0.42 0.49 0.46 0.41 0.44 0.47 0.50 0.52 0.53 0.54 0.57 0.63 0.68 0.72 0.81 0.92 1.05 1.11 1.12 1.18 1.16 1.11 1.13 1.12 1.08 1.02 0.95 0.90 0.86 0.83 0.81 0.78
0.69 0.97 0.67 0.34 0.24 0.44 0.62 0.42 0.35 0.33 0.35 0.36 0.35 0.33 0.33 0.33 0.37 0.41 0.44 0.50 0.56 0.62 0.67 0.69 0.78 0.86 0.96 1.07 1.14 1.08 1.03 1.02 0.97 0.87 0.83 0.80 0.79 0.81 0.79 0.75 0.77 0.75 0.72 0.70
0.67 0.75 0.63 0.48 0.50 0.52 0.44 0.39 0.34 0.35 0.33 0.32 0.33 0.33 0.33 0.32 0.33 0.36 0.37 0.40 0.45 0.53 0.59 0.62 0.68 0.72 0.79 0.82 0.80 0.77 0.76 0.77 0.76 0.72 0.69 0.69 0.69 0.72 0.76 0.75 0.75 0.73 0.70 0.72
0.58 0.57 0.48 0.44 0.40 0.37 0.34 0.36 0.34 0.32 0.30 0.29 0.33 0.31 0.30 0.30 0.31 0.33 0.34 0.36 0.37 0.40 0.45 0.50 0.54 0.57 0.58 0.58 0.57 0.59 0.65 0.69 0.71 0.72 0.68 0.68 0.69 0.69 0.74 0.78 0.79 0.77 0.74 0.74
0.51 0.42 0.37 0.34 0.32 0.34 0.31 0.27 0.27 0.26 0.25 0.27 0.28 0.28 0.29 0.30 0.31 0.33 0.33 0.35 0.36 0.43 0.48 0.54 0.54 0.56 0.58 0.60 0.60 0.63 0.66 0.71 0.75 0.77 0.73 0.71 0.71 0.72 0.76 0.80 0.89 0.99 0.96 0.89
0.59 0.43 0.44 0.41 0.33 0.29 0.28 0.29 0.30 0.31 0.30 0.29 0.30 0.34 0.33 0.34 0.36 0.36 0.36 0.36 0.36 0.40 0.47 0.54 0.54 0.55 0.59 0.63 0.67 0.69 0.69 0.70 0.74 0.77 0.78 0.76 0.71 0.72 0.76 0.79 0.83 0.86 0.89 0.92
0.48 0.34 0.32 0.30 0.25 0.24 0.27 0.31 0.33 0.33 0.33 0.34 0.34 0.36 0.37 0.39 0.40 0.40 0.39 0.39 0.43 0.46 0.48 0.53 0.54 0.56 0.61 0.64 0.67 0.71 0.74 0.74 0.75 0.76 0.78 0.79 0.75 0.72 0.76 0.79 0.82 0.81 0.82 0.85
0.28 0.27 0.28 0.26 0.28 0.28 0.29 0.31 0.31 0.32 0.33 0.35 0.37 0.37 0.38 0.39 0.39 0.39 0.45 0.49 0.49 0.47 0.46 0.46 0.46 0.51 0.57 0.59 0.62 0.67 0.70 0.74 0.76 0.75 0.79 0.83 0.83 0.80 0.76 0.76 0.76 0.74 0.75 0.83
0.24 0.28 0.35 0.32 0.29 0.28 0.27 0.26 0.27 0.29 0.29 0.31 0.34 0.37 0.38 0.40 0.42 0.45 0.47 0.46 0.43 0.40 0.40 0.40 0.40 0.46 0.50 0.54 0.57 0.62 0.67 0.73 0.76 0.77 0.79 0.84 0.88 0.90 0.86 0.81 0.78 0.75 0.72 0.78
0.28 0.27 0.28 0.30 0.31 0.29 0.28 0.28 0.30 0.32 0.32 0.33 0.35 0.39 0.41 0.41 0.41 0.42 0.43 0.42 0.41 0.42 0.42 0.41 0.42 0.44 0.45 0.49 0.52 0.57 0.65 0.78 0.84 0.84 0.84 0.86 0.87 0.88 0.89 0.85 0.82 0.77 0.75 0.81
0.41 0.39 0.35 0.36 0.35 0.34 0.35 0.37 0.39 0.39 0.37 0.37 0.38 0.38 0.37 0.35 0.34 0.35 0.38 0.39 0.39 0.42 0.41 0.42 0.44 0.42 0.42 0.45 0.52 0.57 0.61 0.69 0.78 0.77 0.78 0.83 0.87 0.89 0.92 0.91 0.86 0.79 0.78 0.87
0.50 0.51 0.49 0.48 0.46 0.43 0.41 0.39 0.39 0.39 0.39 0.39 0.37 0.35 0.35 0.35 0.36 0.37 0.38 0.36 0.34 0.34 0.38 0.42 0.44 0.40 0.38 0.42 0.48 0.53 0.57 0.62 0.68 0.73 0.76 0.82 0.90 0.91 0.90 0.90 0.87 0.82 0.79 0.83
0.45 0.47 0.47 0.47 0.47 0.46 0.45 0.46 0.45 0.43 0.41 0.39 0.37 0.38 0.38 0.39 0.40 0.41 0.38 0.35 0.35 0.37 0.40 0.41 0.44 0.40 0.40 0.43 0.50 0.53 0.56 0.59 0.63 0.66 0.72 0.80 0.83 0.80 0.82 0.84 0.85 0.83 0.81 0.82
0.44 0.45 0.45 0.46 0.45 0.44 0.46 0.46 0.43 0.41 0.41 0.39 0.39 0.39 0.39 0.40 0.40 0.39 0.36 0.36 0.43 0.47 0.43 0.43 0.42 0.40 0.42 0.45 0.53 0.54 0.55 0.59 0.62 0.65 0.69 0.74 0.76 0.76 0.76 0.78 0.79 0.79 0.80 0.82
0.46 0.45 0.44 0.46 0.47 0.45 0.45 0.43 0.41 0.43 0.43 0.40 0.41 0.42 0.42 0.41 0.38 0.36 0.34 0.36 0.38 0.39 0.39 0.39 0.37 0.39 0.45 0.57 0.61 0.57 0.55 0.58 0.63 0.67 0.71 0.72 0.73 0.73 0.72 0.72 0.73 0.74 0.76 0.78
0.44 0.45 0.46 0.45 0.42 0.43 0.43 0.42 0.42 0.42 0.42 0.43 0.42 0.41 0.40 0.39 0.36 0.33 0.34 0.39 0.40 0.42 0.41 0.38 0.40 0.50 0.65 0.72 0.64 0.57 0.58 0.60 0.64 0.68 0.71 0.72 0.73 0.71 0.69 0.69 0.71 0.71 0.71 0.72
0.40 0.42 0.43 0.44 0.43 0.42 0.40 0.41 0.41 0.41 0.41 0.42 0.44 0.44 0.43 0.41 0.38 0.39 0.41 0.39 0.39 0.42 0.43 0.43 0.52 0.64 0.72 0.66 0.56 0.55 0.58 0.60 0.62 0.64 0.66 0.67 0.67 0.68 0.67 0.66 0.66 0.66 0.67 0.68
0.32 0.32 0.33 0.34 0.31 0.29 0.32 0.34 0.34 0.35 0.36 0.38 0.39 0.40 0.40 0.38 0.36 0.37 0.41 0.42 0.42 0.44 0.43 0.46 0.55 0.62 0.62 0.54 0.49 0.51 0.53 0.55 0.56 0.57 0.58 0.58 0.58 0.59 0.61 0.61 0.61 0.59 0.60 0.61
0.24 0.23 0.22 0.22 0.23 0.25 0.27 0.26 0.26 0.26 0.27 0.30 0.32 0.32 0.33 0.36 0.40 0.39 0.38 0.38 0.39 0.40 0.39 0.41 0.45 0.47 0.45 0.43 0.45 0.47 0.48 0.52 0.57 0.60 0.58 0.56 0.55 0.55 0.54 0.54 0.56 0.55 0.55 0.56
0.19 0.19 0.19 0.19 0.20 0.21 0.21 0.21 0.23 0.24 0.25 0.27 0.29 0.30 0.32 0.34 0.36 0.37 0.37 0.36 0.35 0.37 0.37 0.38 0.37 0.38 0.38 0.39 0.40 0.41 0.43 0.45 0.47 0.49 0.49 0.50 0.51 0.52 0.51 0.51 0.50 0.51 0.53 0.53
0.17 0.17 0.16 0.16 0.16 0.18 0.20 0.21 0.23 0.24 0.27 0.30 0.33 0.31 0.33 0.34 0.34 0.35 0.34 0.33 0.33 0.34 0.34 0.35 0.35 0.36 0.37 0.38 0.38 0.37 0.38 0.40 0.43 0.44 0.45 0.47 0.48 0.49 0.49 0.50 0.50 0.51 0.52 0.51